Simultaneous Nadir Overpasses (SNOs) Predictions

Prediction of SNOs between GOES-17 and METOP-A Satellite Orbit:

Table of predicted SNOs for the next 14.0 days since TLE Epoch: 5/29/2020
Index Date Time (GOES-17) GOES-17 Lat,Lon METOP-A Lat,Lon Distance(km) Time Diff (sec)
1 05/31/2020 06:00:32 -0.02,-137.19 -0.51,-139.30 240.63 80
2 06/01/2020 05:37:13 -0.02,-137.19 0.61,-134.32 326.37 80
3 06/02/2020 17:56:05 0.02,-137.18 0.37,-138.92 197.46 80
4 06/03/2020 17:38:05 0.01,-137.18 -0.69,-133.93 369.12 80
5 06/05/2020 05:57:05 -0.01,-137.16 -0.32,-138.56 160.40 80
6 06/06/2020 05:33:45 -0.00,-137.14 0.79,-133.59 405.61 80
7 06/07/2020 17:52:37 0.00,-137.13 0.24,-138.18 119.60 80
8 06/08/2020 17:34:37 -0.00,-137.11 -0.87,-133.20 446.22 80
9 06/10/2020 05:50:57 0.00,-137.08 -0.19,-137.82 84.08 80
10 06/11/2020 05:32:57 0.00,-137.07 0.93,-132.84 481.65 80
11 06/12/2020 17:49:08 -0.00,-137.05 0.11,-137.43 44.18 80




NCC Satellite Simultaneous Nadir Overpasses (SNOs) Prediction Service
